2023/08/02 00:00:00, 0.0,20.2
2023/08/02 00:10:00, 0.0,20.1
2023/08/02 00:20:00, 0.0,19.9
2023/08/02 00:30:00, 0.0,19.8
2023/08/02 00:40:00, 0.0,19.8
2023/08/02 00:50:00, 0.0,19.6
2023/08/02 01:00:00, 0.0,19.8
2023/08/02 01:10:00, 0.0,19.8
2023/08/02 01:20:00, 0.8,19.8
2023/08/02 01:30:00, 2.4,19.8
2023/08/02 01:40:00, 0.0,19.8
2023/08/02 01:50:00, 0.0,19.5
2023/08/02 02:00:00, 0.0,19.7
2023/08/02 02:10:00, 0.0,19.5
2023/08/02 02:20:00, 0.0,19.3
2023/08/02 02:30:00, 0.0,19.5
2023/08/02 02:40:00, 0.0,19.4
2023/08/02 02:50:00, 0.0,19.3
2023/08/02 03:00:00, 0.0,19.5
2023/08/02 03:10:00, 0.0,19.4
2023/08/02 03:20:00, 0.0,19.4
2023/08/02 03:30:00, 0.0,19.2
2023/08/02 03:40:00, 0.0,19.3
2023/08/02 03:50:00, 5.9,19.4
2023/08/02 04:00:00, 5.3,19.4
2023/08/02 04:10:00, 5.2,19.4
2023/08/02 04:20:00, 5.3,19.5
2023/08/02 04:30:00, 5.7,19.4
2023/08/02 04:40:00, 6.3,19.1
2023/08/02 04:50:00, 6.3,19.2
2023/08/02 05:00:00, 2.2,19.1
2023/08/02 05:10:00, 0.0,19.1
2023/08/02 05:20:00, 0.5,18.9
2023/08/02 05:30:00, 2.4,19.1
2023/08/02 05:40:00, 1.5,19.0
2023/08/02 05:50:00, 0.0,18.9
2023/08/02 06:00:00, 0.0,19.2
2023/08/02 06:10:00, 0.0,19.3
2023/08/02 06:20:00, 0.0,19.5
2023/08/02 06:30:00, 0.3,20.5
2023/08/02 06:40:00, 8.2,22.1
2023/08/02 06:50:00, 3.5,27.7
2023/08/02 07:00:00, 0.0,29.9
2023/08/02 07:10:00, 0.0,32.6
2023/08/02 07:20:00, 0.0,34.0
2023/08/02 07:30:00, 0.3,33.4
2023/08/02 07:40:00, 0.1,34.5
2023/08/02 07:50:00, 0.0,35.0
2023/08/02 08:00:00, 0.0,33.9
2023/08/02 08:10:00, 0.0,34.8
2023/08/02 08:20:00, 0.1,33.7
2023/08/02 08:30:00, 0.1,32.4
2023/08/02 08:40:00, 0.1,33.8
2023/08/02 08:50:00, 0.1,32.8
2023/08/02 09:00:00, 0.1,33.5
2023/08/02 09:10:00, 0.1,32.4
2023/08/02 09:20:00, 0.1,31.2
2023/08/02 09:30:00, 0.1,29.3
2023/08/02 09:40:00, 0.1,28.5
2023/08/02 09:50:00, 0.1,29.0
2023/08/02 10:00:00, 0.1,29.5
2023/08/02 10:10:00, 0.1,29.6
2023/08/02 10:20:00, 0.1,29.3
2023/08/02 10:30:00, 0.1,30.0
2023/08/02 10:40:00, 0.1,30.0
2023/08/02 10:50:00, 0.1,30.3
2023/08/02 11:00:00, 0.2,30.0
2023/08/02 11:10:00, 0.8,30.6
2023/08/02 11:20:00, 1.5,30.8
2023/08/02 11:30:00, 0.2,30.9
2023/08/02 11:40:00, 0.2,30.8
2023/08/02 11:50:00, 0.2,31.3
2023/08/02 12:00:00, 0.2,31.5
2023/08/02 12:10:00, 0.2,31.2
2023/08/02 12:20:00, 0.2,31.2
2023/08/02 12:30:00, 0.2,30.8
2023/08/02 12:40:00, 0.2,30.6
2023/08/02 12:50:00, 0.2,30.8
2023/08/02 13:00:00, 0.2,29.7
2023/08/02 13:10:00, 0.2,30.4
2023/08/02 13:20:00, 0.2,31.2
2023/08/02 13:30:00, 0.2,31.2
2023/08/02 13:40:00, 2.4,31.5
2023/08/02 13:50:00, 4.2,30.5
2023/08/02 14:00:00, 0.2,28.9
2023/08/02 14:10:00, 0.2,29.6
2023/08/02 14:20:00, 0.5,31.0
2023/08/02 14:30:00, 0.1,29.9
2023/08/02 14:40:00, 3.6,29.5
2023/08/02 14:50:00, 6.3,30.3
2023/08/02 15:00:00, 6.1,29.7
2023/08/02 15:10:00, 6.6,28.4
2023/08/02 15:20:00, 5.2,28.0
2023/08/02 15:30:00, 5.0,28.6
2023/08/02 15:40:00, 5.9,28.7
2023/08/02 15:50:00, 6.3,27.6
2023/08/02 16:00:00, 5.2,29.0
2023/08/02 16:10:00, 4.9,28.6
2023/08/02 16:20:00, 4.5,27.9
2023/08/02 16:30:00, 3.9,28.8
2023/08/02 16:40:00, 3.4,28.2
2023/08/02 16:50:00, 2.9,27.6
2023/08/02 17:00:00, 2.0,26.7
2023/08/02 17:10:00, 1.5,26.1
2023/08/02 17:20:00, 1.4,25.9
2023/08/02 17:30:00, 1.4,25.9
2023/08/02 17:40:00, 1.3,25.1
2023/08/02 17:50:00, 1.3,25.1
2023/08/02 18:00:00, 1.4,24.9
2023/08/02 18:10:00, 1.3,24.5
2023/08/02 18:20:00, 1.3,24.2
2023/08/02 18:30:00, 1.3,24.0
2023/08/02 18:40:00, 1.3,23.6
2023/08/02 18:50:00, 1.4,23.4
2023/08/02 19:00:00, 1.4,23.0
2023/08/02 19:10:00, 1.3,22.7
2023/08/02 19:20:00, 1.4,22.5
2023/08/02 19:30:00, 1.3,22.8
2023/08/02 19:40:00, 1.2,22.3
2023/08/02 19:50:00, 1.1,22.1
2023/08/02 20:00:00, 1.1,22.0
2023/08/02 20:10:00, 1.0,21.9
2023/08/02 20:20:00, 1.0,22.0
2023/08/02 20:30:00, 1.0,22.3
2023/08/02 20:40:00, 0.7,22.7
2023/08/02 20:50:00, 0.1,23.0
2023/08/02 21:00:00, 0.0,23.1
2023/08/02 21:10:00, 0.0,23.0
2023/08/02 21:20:00, 0.0,23.2
2023/08/02 21:30:00, 0.0,23.4
2023/08/02 21:40:00, 0.2,23.7
2023/08/02 21:50:00, 1.0,23.2
2023/08/02 22:00:00, 1.2,22.9
2023/08/02 22:10:00, 1.3,22.9
2023/08/02 22:20:00, 1.4,23.0
2023/08/02 22:30:00, 1.4,22.7
2023/08/02 22:40:00, 1.4,22.4
2023/08/02 22:50:00, 1.3,22.4
2023/08/02 23:00:00, 1.2,22.6
2023/08/02 23:10:00, 1.2,22.4
2023/08/02 23:20:00, 0.7,22.2
2023/08/02 23:30:00, 0.0,21.9
2023/08/02 23:40:00, 0.0,21.9
2023/08/02 23:50:00, 0.0,21.9
